OPS 9390 1 06317U 72101A 21065.17410402 .00000016 00000-0 00000-0 0 9998 2 06317 13.6577 278.1511 1383184 38.5967 327.4474 1.00165164 6167 ATLAS AGENA R/B 1 06318U 72101B 21064.91217170 -.00000033 00000-0 00000-0 0 9997 2 06318 12.7240 269.5391 1181744 101.9342 271.4859 1.02313374 7587